Regional Weather Roundup
Issued by NWS New Orleans/Baton Rouge, LA

Home | Current Version | Previous Version | Text Only | Print | Product List | Glossary Off
Versions: 1 2 3 4 5 6 7 8 9 10 11 12 13 14 15 16 17 18 19 20 21 22 23 24 25 26 27 28 29 30 31 32 33 34 35 36 37 38 39 40 41 42 43 44 45 46 47 48 49 50

587
ASUS44 KLIX 310110
RWRLIX
NEW ORLEANS REGIONAL WEATHER ROUNDUP
NATIONAL WEATHER SERVICE NEW ORLEANS LA
800 PM CDT THU OCT 30 2014

NOTE: "FAIR" INDICATES FEW OR NO CLOUDS BELOW 12,000 FEET WITH NO
      SIGNIFICANT WEATHER AND/OR OBSTRUCTIONS TO VISIBILITY.
      SKY/WX - SKY CONDITION AND SIGNIFICANT WEATHER.
      TMP - AIR TEMPERATURE.     DP    - DEWPOINT TEMPERATURE.
      RH  - RELATIVE HUMIDITY.   PRES  - PRESSURE.
      HI  - HEAT INDEX.          WCI   - WIND CHILL INDEX.

*  THESE STATIONS ARE NOT NWS OR FAA STATIONS AND ARE NOT UNDER
   NWS QUALITY CONTROL.

LAZ038-040-048-061>063-065>067-069-310200-
SOUTHEAST LOUISIANA

CITY           SKY/WX    TMP DP  RH WIND       PRES   REMARKS
N.O. AUDUBON     N/A     63 N/A N/A MISG        N/A
N.O. INTL ARPT CLEAR     62  46  55 W5        30.03F
N.O. LAKEFRONT CLEAR     70  45  40 N10       30.04S
N.O. DOWNTOWN*   N/A     70  41  35 CALM      30.04S
SLIDELL        CLEAR     56  48  74 CALM      30.03S
BATON ROUGE    CLEAR     56  49  77 CALM      30.06R
BOOTHVILLE     CLEAR     65  52  62 CALM      30.04R
BELLE CHASSE   CLEAR     55  49  80 SW3       30.03S
BOGALUSA*        N/A     55  46  70 CALM      30.06R
NEW ROADS*       N/A     58  49  72 CALM      30.06S
GONZALES*        N/A     56  52  86 CALM      30.05R
HAMMOND*       CLEAR     55  46  71 CALM      30.07R
HOUMA*         CLEAR     57  50  77 CALM      30.05R
PORT FOURCHON* CLEAR     68  48  49 N8G14     30.07S

$$

MSZ070-080>082-310200-
SOUTHERN MISSISSIPPI

CITY           SKY/WX    TMP DP  RH WIND       PRES   REMARKS
MCCOMB         CLEAR     57  44  62 CALM      30.05S
GULFPORT       CLEAR     57  45  64 NW3       30.02S
BILOXI         CLEAR     65  45  49 N3        30.03R
PASCAGOULA     CLEAR     50  44  80 CALM      30.02S
STENNIS ARPT*  CLEAR     52  45  76 CALM      30.04S

$$

COASTAL OBSERVATIONS
LAKE AND NEARSHORE STATIONS

STATION/POSITION TIME  TEMP    WIND        PRES    WAVE
                       AIR SEA DIR/SP/G            HT/PER
                 (UTC) (F)     (DEG/KT/KT) (MB)    (FT/S)
PASCAGOULA       0100   63     360/  4/  5 1016.0
WAVELAND YACHT   0100   67     340/  5/  6 1016.2
GRAND ISLE       0100   70 75   10/  6/  8 1017.7
SOUTHWEST PASS   0100   69 78              1017.1
NEW CANAL        0100   71 71  360/  5/  5 1017.3
SHELL BEACH      0100   71 69  330/  8/ 10 1016.9

OFFSHORE STATIONS

STATION/POSITION TIME  TEMP    WIND        PRES    WAVE
                       AIR SEA DIR/SP/G            HT/PER
                 (UTC) (F)     (DEG/KT/KT) (MB)    (FT/S)
64 S DAUPHIN ISL 0006   70 78  350/ 14/ 19 1016.5    3/ 6

$$




USA.gov is the U.S. government's official web portal to all federal, state and local government web resources and services.